TimeCDT,TemperatureF,Dew PointF,Humidity,Sea Level PressureIn,VisibilityMPH,Wind Direction,Wind SpeedMPH,Gust SpeedMPH,PrecipitationIn,Events,Conditions,WindDirDegrees,DateUTC
12:15 AM,51.6,51.1,98,30.17,10.0,Calm,Calm,-,N/A,,Scattered Clouds,0,2013-07-30 05:15:00
12:35 AM,51.6,51.1,98,30.17,10.0,Calm,Calm,-,N/A,,Scattered Clouds,0,2013-07-30 05:35:00
12:55 AM,50.0,49.3,97,30.17,10.0,Calm,Calm,-,N/A,,Clear,0,2013-07-30 05:55:00
1:15 AM,50.2,49.6,98,30.16,10.0,Calm,Calm,-,N/A,,Clear,0,2013-07-30 06:15:00
1:35 AM,50.4,50.0,99,30.16,10.0,Calm,Calm,-,N/A,,Clear,0,2013-07-30 06:35:00
1:55 AM,49.6,49.3,99,30.16,10.0,Calm,Calm,-,N/A,,Clear,0,2013-07-30 06:55:00
2:15 AM,49.5,49.1,99,30.16,10.0,Calm,Calm,-,N/A,,Clear,0,2013-07-30 07:15:00
2:35 AM,50.2,49.8,99,30.16,10.0,Calm,Calm,-,N/A,,Clear,0,2013-07-30 07:35:00
2:55 AM,50.2,50.0,99,30.16,10.0,Calm,Calm,-,N/A,,Clear,0,2013-07-30 07:55:00
3:15 AM,50.5,50.2,99,30.16,10.0,Calm,Calm,-,N/A,,Clear,0,2013-07-30 08:15:00
3:35 AM,50.9,50.5,99,30.16,10.0,Calm,Calm,-,N/A,,Clear,0,2013-07-30 08:35:00
3:55 AM,52.0,51.8,99,30.16,10.0,Calm,Calm,-,N/A,,Clear,0,2013-07-30 08:55:00
4:15 AM,52.7,52.3,99,30.16,10.0,Calm,Calm,-,N/A,,Clear,0,2013-07-30 09:15:00
4:35 AM,52.9,52.5,99,30.16,10.0,Calm,Calm,-,N/A,,Mostly Cloudy,0,2013-07-30 09:35:00
4:55 AM,53.1,52.7,99,30.16,10.0,Calm,Calm,-,N/A,,Overcast,0,2013-07-30 09:55:00
5:15 AM,53.6,53.1,98,30.17,10.0,Calm,Calm,-,N/A,,Overcast,0,2013-07-30 10:15:00
5:35 AM,53.1,52.7,99,30.18,10.0,Calm,Calm,-,N/A,,Overcast,0,2013-07-30 10:35:00
5:55 AM,54.5,54.0,98,30.18,10.0,Calm,Calm,-,N/A,,Overcast,0,2013-07-30 10:55:00
6:15 AM,55.6,54.9,97,30.18,10.0,Calm,Calm,-,N/A,Rain,Light Rain,0,2013-07-30 11:15:00
6:35 AM,56.3,55.4,97,30.19,10.0,Calm,Calm,-,N/A,,Overcast,0,2013-07-30 11:35:00
6:55 AM,57.2,56.3,97,30.19,7.0,Calm,Calm,-,N/A,Rain,Light Rain,0,2013-07-30 11:55:00
7:15 AM,57.4,56.7,97,30.19,7.0,SSW,3.5,-,N/A,Rain,Rain,210,2013-07-30 12:15:00
7:35 AM,58.1,57.2,97,30.20,7.0,Calm,Calm,-,N/A,Rain,Light Rain,0,2013-07-30 12:35:00
7:55 AM,58.5,57.6,97,30.20,7.0,SW,4.6,-,N/A,Rain,Light Rain,220,2013-07-30 12:55:00
8:15 AM,58.6,57.7,97,30.20,7.0,Calm,Calm,-,N/A,,Light Drizzle,0,2013-07-30 13:15:00
8:35 AM,59.0,58.1,97,30.20,10.0,Calm,Calm,-,N/A,,Overcast,0,2013-07-30 13:35:00
8:55 AM,59.4,58.5,97,30.20,10.0,Calm,Calm,-,N/A,,Overcast,0,2013-07-30 13:55:00
9:15 AM,59.7,58.5,96,30.19,10.0,Calm,Calm,-,N/A,,Overcast,0,2013-07-30 14:15:00
9:35 AM,60.1,58.5,94,30.19,10.0,Calm,Calm,-,N/A,,Overcast,0,2013-07-30 14:35:00
9:55 AM,60.4,58.1,92,30.19,10.0,Calm,Calm,-,N/A,,Overcast,0,2013-07-30 14:55:00
10:15 AM,61.2,57.9,89,30.19,10.0,Calm,Calm,-,N/A,,Overcast,0,2013-07-30 15:15:00
10:35 AM,61.7,58.1,88,30.19,10.0,Calm,Calm,-,N/A,,Overcast,0,2013-07-30 15:35:00
10:55 AM,62.1,58.1,87,30.18,10.0,SSW,3.5,-,N/A,,Overcast,200,2013-07-30 15:55:00
11:15 AM,62.4,58.3,86,30.18,10.0,SSW,3.5,-,N/A,,Overcast,200,2013-07-30 16:15:00
11:55 AM,65.3,58.3,78,30.17,10.0,South,4.6,-,N/A,,Overcast,170,2013-07-30 16:55:00
12:15 PM,65.5,58.6,79,30.16,10.0,Calm,Calm,-,N/A,,Overcast,0,2013-07-30 17:15:00
12:35 PM,65.7,57.7,76,30.16,10.0,SW,5.8,-,N/A,,Overcast,220,2013-07-30 17:35:00
1:15 PM,67.5,57.7,71,30.15,10.0,SSW,9.2,-,N/A,,Overcast,210,2013-07-30 18:15:00
1:35 PM,66.6,57.2,72,30.15,10.0,SSW,6.9,-,N/A,,Overcast,200,2013-07-30 18:35:00
1:55 PM,66.6,57.4,72,30.15,10.0,SSW,6.9,-,N/A,,Overcast,210,2013-07-30 18:55:00
2:15 PM,67.6,57.2,69,30.14,10.0,SW,8.1,-,N/A,,Overcast,230,2013-07-30 19:15:00
2:35 PM,68.5,56.7,66,30.13,10.0,SSW,8.1,-,N/A,,Overcast,210,2013-07-30 19:35:00
2:55 PM,69.8,55.8,61,30.13,10.0,SSW,6.9,-,N/A,,Mostly Cloudy,210,2013-07-30 19:55:00
3:15 PM,68.5,56.3,65,30.13,10.0,SSW,8.1,-,N/A,,Overcast,210,2013-07-30 20:15:00
3:35 PM,68.2,56.7,67,30.12,10.0,SSW,4.6,-,N/A,,Overcast,210,2013-07-30 20:35:00
3:55 PM,68.4,57.2,67,30.12,10.0,SSW,8.1,-,N/A,,Overcast,210,2013-07-30 20:55:00
4:15 PM,67.8,57.4,69,30.12,10.0,SSW,6.9,-,N/A,,Overcast,200,2013-07-30 21:15:00
4:35 PM,67.1,57.2,70,30.12,10.0,SSW,5.8,-,N/A,,Overcast,210,2013-07-30 21:35:00
4:55 PM,67.8,57.7,70,30.12,10.0,SSW,5.8,-,N/A,,Overcast,210,2013-07-30 21:55:00
5:15 PM,68.2,57.4,68,30.12,10.0,SSW,4.6,-,N/A,,Overcast,200,2013-07-30 22:15:00
5:35 PM,67.5,57.6,70,30.12,10.0,SW,3.5,-,N/A,,Overcast,220,2013-07-30 22:35:00
5:55 PM,67.6,57.7,71,30.11,10.0,SSW,4.6,-,N/A,,Overcast,210,2013-07-30 22:55:00
6:15 PM,67.3,57.4,70,30.11,10.0,SW,5.8,-,N/A,,Overcast,220,2013-07-30 23:15:00
6:35 PM,66.4,57.7,74,30.11,10.0,SSW,3.5,-,N/A,,Overcast,200,2013-07-30 23:35:00
6:55 PM,66.4,57.6,73,30.11,10.0,SSW,3.5,-,N/A,,Overcast,210,2013-07-30 23:55:00
7:15 PM,66.2,57.9,75,30.11,10.0,South,3.5,-,N/A,,Overcast,180,2013-07-31 00:15:00
7:35 PM,65.8,58.5,77,30.11,10.0,Calm,Calm,-,N/A,,Overcast,0,2013-07-31 00:35:00
7:55 PM,65.3,58.5,78,30.10,10.0,Calm,Calm,-,N/A,,Overcast,0,2013-07-31 00:55:00
8:15 PM,65.3,58.3,78,30.10,10.0,SSW,3.5,-,N/A,,Overcast,200,2013-07-31 01:15:00
8:35 PM,64.9,57.4,76,30.10,10.0,Calm,Calm,-,N/A,,Overcast,0,2013-07-31 01:35:00
8:55 PM,63.9,58.5,83,30.10,10.0,Calm,Calm,-,N/A,,Overcast,0,2013-07-31 01:55:00
9:15 PM,63.5,58.6,84,30.10,10.0,Calm,Calm,-,N/A,,Overcast,0,2013-07-31 02:15:00
9:35 PM,62.6,59.2,89,30.11,10.0,Calm,Calm,-,N/A,,Overcast,0,2013-07-31 02:35:00
9:55 PM,62.6,59.9,91,30.11,10.0,Calm,Calm,-,N/A,,Overcast,0,2013-07-31 02:55:00
10:15 PM,62.1,59.9,93,30.11,10.0,Calm,Calm,-,N/A,,Overcast,0,2013-07-31 03:15:00
10:35 PM,62.6,60.1,91,30.11,10.0,Calm,Calm,-,N/A,,Overcast,0,2013-07-31 03:35:00
10:55 PM,62.2,59.5,91,30.11,10.0,Calm,Calm,-,N/A,,Overcast,0,2013-07-31 03:55:00
11:15 PM,62.1,59.9,93,30.10,10.0,Calm,Calm,-,N/A,,Overcast,0,2013-07-31 04:15:00
11:35 PM,62.6,58.3,86,30.10,10.0,Calm,Calm,-,N/A,,Overcast,0,2013-07-31 04:35:00
11:55 PM,62.2,58.8,89,30.10,10.0,Calm,Calm,-,N/A,,Overcast,0,2013-07-31 04:55:00